User: anonymous   Login
Location: Unspecified
(0.0000°N, 0.0000°E)
Time: 06:53:34
(UTC+00:00)
Language:

STARLINK-5523 - Orbit

View from above orbital plane
View from above orbital plane
View from above satellite
View from above satellite

Ground track
Ground track

The orbit is defined by the following mean orbital elements,

1 56470U          26145.65079097 +.00000000 +00000-0 +98668-4 0 00007
2 56470  69.9985 290.5554 0002964 266.9623  93.1197 14.98335290    09
Epoch (UTC): 25 May 2026 15:37:08
Eccentricity: 0.0002964
inclination: 69.9985°
perigee height: 570 km
apogee height: 574 km
right ascension of ascending node: 290.5554°
argument of perigee: 266.9623°
revolutions per day: 14.98335290
mean anomaly at epoch: 93.1197°

The dashed part of the orbit path shows where the satellite is in the earth's shadow,  

DLR